M I D A S
Marine Information and Data Acquisition System
Tripno 1500 of the Zeeleeuw from 2008-06-10 06:42:01 to 2008-06-10 13:07:52
Back to CruiseResearch ActivitiesStationsMapUnderway DataData graphs

EquipmentUnitsComments
TimeDGPSUTC
LatitudeDGPSDM.mWGS84
LongitudeDGPSDM.mWGS84
SpeedMeteo Stationm/sRelative wind speed
DirectionMeteo StationdegRelative wind direction
TemperatureMeteo Stationdeg CelciusAir temperature
PressureMeteo StationPaAtmospheric pressure
HumidityMeteo Station%Relative humidity
Missing or incorrect values are displayed as -999
Metereological data collected by the RV Zeeleeuw from 2008-06-10 06:14:03 to 2008-06-10 13:10:29
Time Latitude Longitude Speed Direction Temperature Pressure Humidity
2008-06-10 06:15 51°13.644 2°55.97 -999 -999 -999 -999 -999
2008-06-10 06:16 51°13.678 2°55.843 -999 -999 -999 -999 -999
2008-06-10 06:17 51°13.687 2°55.756 -999 -999 -999 -999 -999
2008-06-10 06:18 51°13.695 2°55.74 -999 -999 -999 -999 -999
2008-06-10 06:19 51°13.774 2°55.693 -999 -999 -999 -999 -999
2008-06-10 06:20 51°13.89 2°55.592 -999 -999 -999 -999 -999
2008-06-10 06:21 51°14.023 2°55.491 -999 -999 -999 -999 -999
2008-06-10 06:22 51°14.139 2°55.402 -999 -999 -999 -999 -999
2008-06-10 06:23 51°14.265 2°55.243 -999 -999 -999 -999 -999
2008-06-10 06:24 51°14.397 2°55.014 -999 -999 -999 -999 -999
2008-06-10 06:25 51°14.555 2°54.808 -999 -999 -999 -999 -999
2008-06-10 06:26 51°14.692 2°54.576 -999 -999 -999 -999 -999
2008-06-10 06:27 51°14.819 2°54.327 -999 -999 -999 -999 -999
2008-06-10 06:28 51°14.952 2°54.084 -999 -999 -999 -999 -999
2008-06-10 06:29 51°15.072 2°53.825 -999 -999 -999 -999 -999
2008-06-10 06:30 51°15.154 2°53.536 -999 -999 -999 -999 -999
2008-06-10 06:31 51°15.221 2°53.242 -999 -999 -999 -999 -999
2008-06-10 06:32 51°15.274 2°52.944 -999 -999 -999 -999 -999
2008-06-10 06:33 51°15.335 2°52.647 -999 -999 -999 -999 -999
2008-06-10 06:34 51°15.394 2°52.348 -999 -999 -999 -999 -999
2008-06-10 06:35 51°15.446 2°52.047 -999 -999 -999 -999 -999
2008-06-10 06:36 51°15.491 2°51.743 -999 -999 -999 -999 -999
2008-06-10 06:37 51°15.513 2°51.435 -999 -999 -999 -999 -999
2008-06-10 06:38 51°15.514 2°51.125 -999 -999 -999 -999 -999
2008-06-10 06:39 51°15.529 2°50.815 -999 -999 -999 -999 -999
2008-06-10 06:40 51°15.535 2°50.508 -999 -999 -999 -999 -999
2008-06-10 06:41 51°15.533 2°50.201 -999 -999 -999 -999 -999
2008-06-10 06:42 51°15.523 2°49.891 -999 -999 -999 -999 -999
2008-06-10 06:43 51°15.537 2°49.584 -999 -999 -999 -999 -999
2008-06-10 06:44 51°15.608 2°49.291 -999 -999 -999 -999 -999
2008-06-10 06:45 51°15.667 2°48.989 -999 -999 -999 -999 -999
2008-06-10 06:46 51°15.723 2°48.683 -999 -999 -999 -999 -999
2008-06-10 06:47 51°15.761 2°48.373 -999 -999 -999 -999 -999
2008-06-10 06:48 51°15.766 2°48.062 -999 -999 -999 -999 -999
2008-06-10 06:49 51°15.748 2°47.752 -999 -999 -999 -999 -999
2008-06-10 06:50 51°15.731 2°47.444 -999 -999 -999 -999 -999
2008-06-10 06:51 51°15.718 2°47.137 -999 -999 -999 -999 -999
2008-06-10 06:52 51°15.698 2°46.832 -999 -999 -999 -999 -999
2008-06-10 06:53 51°15.681 2°46.527 -999 -999 -999 -999 -999
2008-06-10 06:54 51°15.655 2°46.227 -999 -999 -999 -999 -999
2008-06-10 06:55 51°15.641 2°45.925 -999 -999 -999 -999 -999
2008-06-10 06:56 51°15.616 2°45.625 -999 -999 -999 -999 -999
2008-06-10 06:57 51°15.592 2°45.324 -999 -999 -999 -999 -999
2008-06-10 06:58 51°15.573 2°45.021 -999 -999 -999 -999 -999
2008-06-10 06:59 51°15.552 2°44.72 -999 -999 -999 -999 -999
2008-06-10 07:00 51°15.532 2°44.418 -999 -999 -999 -999 -999
2008-06-10 07:01 51°15.521 2°44.112 -999 -999 -999 -999 -999
2008-06-10 07:02 51°15.494 2°43.808 -999 -999 -999 -999 -999
2008-06-10 07:03 51°15.467 2°43.501 -999 -999 -999 -999 -999
2008-06-10 07:04 51°15.446 2°43.191 -999 -999 -999 -999 -999
2008-06-10 07:05 51°15.415 2°42.885 -999 -999 -999 -999 -999
2008-06-10 07:06 51°15.38 2°42.577 -999 -999 -999 -999 -999
2008-06-10 07:07 51°15.344 2°42.27 -999 -999 -999 -999 -999
2008-06-10 07:08 51°15.318 2°41.959 -999 -999 -999 -999 -999
2008-06-10 07:09 51°15.289 2°41.647 -999 -999 -999 -999 -999
2008-06-10 07:10 51°15.253 2°41.341 -999 -999 -999 -999 -999
2008-06-10 07:11 51°15.235 2°41.03 -999 -999 -999 -999 -999
2008-06-10 07:12 51°15.235 2°40.716 -999 -999 -999 -999 -999
2008-06-10 07:13 51°15.23 2°40.402 -999 -999 -999 -999 -999
2008-06-10 07:14 51°15.219 2°40.087 -999 -999 -999 -999 -999
2008-06-10 07:15 51°15.204 2°39.771 -999 -999 -999 -999 -999
2008-06-10 07:16 51°15.192 2°39.454 -999 -999 -999 -999 -999
2008-06-10 07:17 51°15.175 2°39.139 -999 -999 -999 -999 -999
2008-06-10 07:18 51°15.159 2°38.93 -999 -999 -999 -999 -999
2008-06-10 07:19 51°15.129 2°38.758 -999 -999 -999 -999 -999
2008-06-10 07:20 51°15.11 2°38.555 -999 -999 -999 -999 -999
2008-06-10 07:21 51°15.077 2°38.386 -999 -999 -999 -999 -999
2008-06-10 07:22 51°15.043 2°38.322 -999 -999 -999 -999 -999
2008-06-10 07:23 51°15.016 2°38.299 -999 -999 -999 -999 -999
2008-06-10 07:24 51°14.991 2°38.236 -999 -999 -999 -999 -999
2008-06-10 07:25 51°15.03 2°38.151 -999 -999 -999 -999 -999
2008-06-10 07:26 51°15.089 2°38.127 -999 -999 -999 -999 -999
2008-06-10 07:27 51°15.138 2°38.128 -999 -999 -999 -999 -999
2008-06-10 07:28 51°15.183 2°38.134 -999 -999 -999 -999 -999
2008-06-10 07:29 51°15.228 2°38.138 -999 -999 -999 -999 -999
2008-06-10 07:30 51°15.275 2°38.142 -999 -999 -999 -999 -999
2008-06-10 07:31 51°15.321 2°38.144 -999 -999 -999 -999 -999
2008-06-10 07:32 51°15.367 2°38.145 -999 -999 -999 -999 -999
2008-06-10 07:33 51°15.413 2°38.148 -999 -999 -999 -999 -999
2008-06-10 07:34 51°15.459 2°38.154 -999 -999 -999 -999 -999
2008-06-10 07:35 51°15.506 2°38.162 -999 -999 -999 -999 -999
2008-06-10 07:36 51°15.551 2°38.178 -999 -999 -999 -999 -999
2008-06-10 07:37 51°15.596 2°38.199 -999 -999 -999 -999 -999
2008-06-10 07:38 51°15.641 2°38.219 -999 -999 -999 -999 -999
2008-06-10 07:39 51°15.685 2°38.243 -999 -999 -999 -999 -999
2008-06-10 07:40 51°15.729 2°38.268 -999 -999 -999 -999 -999
2008-06-10 07:41 51°15.773 2°38.294 -999 -999 -999 -999 -999
2008-06-10 07:42 51°15.816 2°38.324 -999 -999 -999 -999 -999
2008-06-10 07:43 51°15.858 2°38.355 -999 -999 -999 -999 -999
2008-06-10 07:44 51°15.898 2°38.393 -999 -999 -999 -999 -999
2008-06-10 07:45 51°15.933 2°38.441 -999 -999 -999 -999 -999
2008-06-10 07:46 51°15.962 2°38.494 -999 -999 -999 -999 -999
2008-06-10 07:47 51°16.006 2°38.604 -999 -999 -999 -999 -999
2008-06-10 07:48 51°16.044 2°38.783 -999 -999 -999 -999 -999
2008-06-10 07:49 51°16.032 2°38.903 -999 -999 -999 -999 -999
2008-06-10 07:50 51°15.999 2°39.011 -999 -999 -999 -999 -999
2008-06-10 07:51 51°15.969 2°39.067 -999 -999 -999 -999 -999
2008-06-10 07:52 51°15.944 2°39.104 -999 -999 -999 -999 -999
2008-06-10 07:53 51°15.912 2°39.135 -999 -999 -999 -999 -999
2008-06-10 07:54 51°15.828 2°39.223 -999 -999 -999 -999 -999
2008-06-10 07:55 51°15.716 2°39.448 -999 -999 -999 -999 -999
2008-06-10 07:56 51°15.611 2°39.727 -999 -999 -999 -999 -999
2008-06-10 07:57 51°15.51 2°40.007 -999 -999 -999 -999 -999
2008-06-10 07:58 51°15.408 2°40.283 -999 -999 -999 -999 -999
2008-06-10 07:59 51°15.327 2°40.574 -999 -999 -999 -999 -999
2008-06-10 08:00 51°15.237 2°40.856 -999 -999 -999 -999 -999
2008-06-10 08:01 51°15.159 2°41.144 -999 -999 -999 -999 -999
2008-06-10 08:02 51°15.091 2°41.44 -999 -999 -999 -999 -999
2008-06-10 08:03 51°15.018 2°41.737 -999 -999 -999 -999 -999
2008-06-10 08:04 51°14.934 2°42.03 -999 -999 -999 -999 -999
2008-06-10 08:05 51°14.851 2°42.326 -999 -999 -999 -999 -999
2008-06-10 08:06 51°14.789 2°42.633 -999 -999 -999 -999 -999
2008-06-10 08:07 51°14.776 2°42.957 -999 -999 -999 -999 -999
2008-06-10 08:08 51°14.801 2°43.213 -999 -999 -999 -999 -999
2008-06-10 08:09 51°14.83 2°43.338 -999 -999 -999 -999 -999
2008-06-10 08:10 51°14.842 2°43.43 -999 -999 -999 -999 -999
2008-06-10 08:11 51°14.851 2°43.515 -999 -999 -999 -999 -999
2008-06-10 08:12 51°14.869 2°43.604 -999 -999 -999 -999 -999
2008-06-10 08:13 51°14.895 2°43.692 -999 -999 -999 -999 -999
2008-06-10 08:14 51°14.912 2°43.775 -999 -999 -999 -999 -999
2008-06-10 08:15 51°14.922 2°43.852 -999 -999 -999 -999 -999
2008-06-10 08:16 51°14.936 2°43.924 -999 -999 -999 -999 -999
2008-06-10 08:17 51°14.959 2°43.991 -999 -999 -999 -999 -999
2008-06-10 08:18 51°14.988 2°44.052 -999 -999 -999 -999 -999
2008-06-10 08:19 51°15.02 2°44.11 -999 -999 -999 -999 -999
2008-06-10 08:20 51°15.049 2°44.173 -999 -999 -999 -999 -999
2008-06-10 08:21 51°15.078 2°44.235 -999 -999 -999 -999 -999
2008-06-10 08:22 51°15.108 2°44.295 -999 -999 -999 -999 -999
2008-06-10 08:23 51°15.14 2°44.355 -999 -999 -999 -999 -999
2008-06-10 08:24 51°15.17 2°44.414 -999 -999 -999 -999 -999
2008-06-10 08:25 51°15.198 2°44.477 -999 -999 -999 -999 -999
2008-06-10 08:26 51°15.222 2°44.544 -999 -999 -999 -999 -999
2008-06-10 08:27 51°15.244 2°44.612 -999 -999 -999 -999 -999
2008-06-10 08:28 51°15.269 2°44.681 -999 -999 -999 -999 -999
2008-06-10 08:29 51°15.3 2°44.747 -999 -999 -999 -999 -999
2008-06-10 08:30 51°15.336 2°44.81 -999 -999 -999 -999 -999
2008-06-10 08:31 51°15.372 2°44.872 -999 -999 -999 -999 -999
2008-06-10 08:32 51°15.399 2°44.945 -999 -999 -999 -999 -999
2008-06-10 08:33 51°15.416 2°45.024 -999 -999 -999 -999 -999
2008-06-10 08:34 51°15.423 2°45.105 -999 -999 -999 -999 -999
2008-06-10 08:35 51°15.428 2°45.183 -999 -999 -999 -999 -999
2008-06-10 08:36 51°15.427 2°45.259 -999 -999 -999 -999 -999
2008-06-10 08:37 51°15.414 2°45.323 -999 -999 -999 -999 -999
2008-06-10 08:38 51°15.4 2°45.363 -999 -999 -999 -999 -999
2008-06-10 08:39 51°15.388 2°45.391 -999 -999 -999 -999 -999
2008-06-10 08:40 51°15.378 2°45.435 -999 -999 -999 -999 -999
2008-06-10 08:41 51°15.395 2°45.508 -999 -999 -999 -999 -999
2008-06-10 08:42 51°15.427 2°45.597 -999 -999 -999 -999 -999
2008-06-10 08:43 51°15.455 2°45.672 -999 -999 -999 -999 -999
2008-06-10 08:44 51°15.477 2°45.736 -999 -999 -999 -999 -999
2008-06-10 08:45 51°15.501 2°45.803 -999 -999 -999 -999 -999
2008-06-10 08:46 51°15.525 2°45.872 -999 -999 -999 -999 -999
2008-06-10 08:47 51°15.549 2°45.941 -999 -999 -999 -999 -999
2008-06-10 08:48 51°15.573 2°46.009 -999 -999 -999 -999 -999
2008-06-10 08:49 51°15.597 2°46.078 -999 -999 -999 -999 -999
2008-06-10 08:50 51°15.621 2°46.146 -999 -999 -999 -999 -999
2008-06-10 08:51 51°15.645 2°46.214 -999 -999 -999 -999 -999
2008-06-10 08:52 51°15.668 2°46.282 -999 -999 -999 -999 -999
2008-06-10 08:53 51°15.691 2°46.35 -999 -999 -999 -999 -999
2008-06-10 08:54 51°15.714 2°46.418 -999 -999 -999 -999 -999
2008-06-10 08:55 51°15.738 2°46.485 -999 -999 -999 -999 -999
2008-06-10 08:56 51°15.761 2°46.553 -999 -999 -999 -999 -999
2008-06-10 08:57 51°15.784 2°46.62 -999 -999 -999 -999 -999
2008-06-10 08:58 51°15.807 2°46.687 -999 -999 -999 -999 -999
2008-06-10 08:59 51°15.83 2°46.754 -999 -999 -999 -999 -999
2008-06-10 09:00 51°15.853 2°46.821 -999 -999 -999 -999 -999
2008-06-10 09:01 51°15.875 2°46.888 -999 -999 -999 -999 -999
2008-06-10 09:02 51°15.897 2°46.956 -999 -999 -999 -999 -999
2008-06-10 09:03 51°15.919 2°47.024 -999 -999 -999 -999 -999
2008-06-10 09:04 51°15.941 2°47.092 -999 -999 -999 -999 -999
2008-06-10 09:05 51°15.962 2°47.16 -999 -999 -999 -999 -999
2008-06-10 09:06 51°15.983 2°47.228 -999 -999 -999 -999 -999
2008-06-10 09:07 51°16.004 2°47.297 -999 -999 -999 -999 -999
2008-06-10 09:08 51°16.025 2°47.363 -999 -999 -999 -999 -999
2008-06-10 09:09 51°16.044 2°47.428 -999 -999 -999 -999 -999
2008-06-10 09:10 51°16.053 2°47.496 -999 -999 -999 -999 -999
2008-06-10 09:11 51°16.046 2°47.549 -999 -999 -999 -999 -999
2008-06-10 09:12 51°16.02 2°47.615 -999 -999 -999 -999 -999
2008-06-10 09:13 51°15.953 2°47.697 -999 -999 -999 -999 -999
2008-06-10 09:14 51°15.898 2°47.732 -999 -999 -999 -999 -999
2008-06-10 09:15 51°15.857 2°47.741 -999 -999 -999 -999 -999
2008-06-10 09:16 51°15.825 2°47.737 -999 -999 -999 -999 -999
2008-06-10 09:17 51°15.799 2°47.729 -999 -999 -999 -999 -999
2008-06-10 09:18 51°15.777 2°47.721 -999 -999 -999 -999 -999
2008-06-10 09:19 51°15.759 2°47.713 -999 -999 -999 -999 -999
2008-06-10 09:20 51°15.731 2°47.726 -999 -999 -999 -999 -999
2008-06-10 09:21 51°15.73 2°47.785 -999 -999 -999 -999 -999
2008-06-10 09:22 51°15.779 2°47.884 -999 -999 -999 -999 -999
2008-06-10 09:23 51°15.844 2°48.023 -999 -999 -999 -999 -999
2008-06-10 09:24 51°15.918 2°48.156 -999 -999 -999 -999 -999
2008-06-10 09:25 51°15.99 2°48.289 -999 -999 -999 -999 -999
2008-06-10 09:26 51°16.065 2°48.427 -999 -999 -999 -999 -999
2008-06-10 09:27 51°16.146 2°48.574 -999 -999 -999 -999 -999
2008-06-10 09:28 51°16.228 2°48.725 -999 -999 -999 -999 -999
2008-06-10 09:29 51°16.309 2°48.877 -999 -999 -999 -999 -999
2008-06-10 09:30 51°16.39 2°49.028 -999 -999 -999 -999 -999
2008-06-10 09:31 51°16.475 2°49.173 -999 -999 -999 -999 -999
2008-06-10 09:32 51°16.568 2°49.309 -999 -999 -999 -999 -999
2008-06-10 09:33 51°16.661 2°49.443 -999 -999 -999 -999 -999
2008-06-10 09:34 51°16.756 2°49.573 -999 -999 -999 -999 -999
2008-06-10 09:35 51°16.853 2°49.699 -999 -999 -999 -999 -999
2008-06-10 09:36 51°16.949 2°49.828 -999 -999 -999 -999 -999
2008-06-10 09:37 51°17.052 2°49.94 -999 -999 -999 -999 -999
2008-06-10 09:38 51°17.183 2°50.039 -999 -999 -999 -999 -999
2008-06-10 09:39 51°17.3 2°50.118 -999 -999 -999 -999 -999
2008-06-10 09:40 51°17.444 2°50.219 -999 -999 -999 -999 -999
2008-06-10 09:41 51°17.593 2°50.353 -999 -999 -999 -999 -999
2008-06-10 09:42 51°17.762 2°50.505 -999 -999 -999 -999 -999
2008-06-10 09:43 51°17.932 2°50.658 -999 -999 -999 -999 -999
2008-06-10 09:44 51°18.098 2°50.825 -999 -999 -999 -999 -999
2008-06-10 09:45 51°18.263 2°50.991 -999 -999 -999 -999 -999
2008-06-10 09:46 51°18.413 2°51.183 -999 -999 -999 -999 -999
2008-06-10 09:47 51°18.553 2°51.393 -999 -999 -999 -999 -999
2008-06-10 09:48 51°18.694 2°51.601 -999 -999 -999 -999 -999
2008-06-10 09:49 51°18.839 2°51.799 -999 -999 -999 -999 -999
2008-06-10 09:50 51°18.994 2°51.977 -999 -999 -999 -999 -999
2008-06-10 09:51 51°19.113 2°52.103 -999 -999 -999 -999 -999
2008-06-10 09:52 51°19.187 2°52.155 -999 -999 -999 -999 -999
2008-06-10 09:53 51°19.246 2°52.155 -999 -999 -999 -999 -999
2008-06-10 09:54 51°19.286 2°52.146 -999 -999 -999 -999 -999
2008-06-10 09:55 51°19.293 2°52.121 -999 -999 -999 -999 -999
2008-06-10 09:56 51°19.284 2°52.102 -999 -999 -999 -999 -999
2008-06-10 09:57 51°19.273 2°52.08 -999 -999 -999 -999 -999
2008-06-10 09:58 51°19.262 2°52.058 -999 -999 -999 -999 -999
2008-06-10 09:59 51°19.25 2°52.036 -999 -999 -999 -999 -999
2008-06-10 10:00 51°19.237 2°52.013 -999 -999 -999 -999 -999
2008-06-10 10:01 51°19.223 2°51.991 -999 -999 -999 -999 -999
2008-06-10 10:02 51°19.209 2°51.969 -999 -999 -999 -999 -999
2008-06-10 10:03 51°19.194 2°51.948 -999 -999 -999 -999 -999
2008-06-10 10:04 51°19.179 2°51.927 -999 -999 -999 -999 -999
2008-06-10 10:05 51°19.155 2°51.858 -999 -999 -999 -999 -999
2008-06-10 10:06 51°19.077 2°51.859 -999 -999 -999 -999 -999
2008-06-10 10:07 51°19.091 2°52.013 -999 -999 -999 -999 -999
2008-06-10 10:08 51°19.173 2°52.164 -999 -999 -999 -999 -999
2008-06-10 10:09 51°19.23 2°52.176 -999 -999 -999 -999 -999
2008-06-10 10:10 51°19.272 2°52.15 -999 -999 -999 -999 -999
2008-06-10 10:11 51°19.271 2°52.122 -999 -999 -999 -999 -999
2008-06-10 10:12 51°19.259 2°52.097 -999 -999 -999 -999 -999
2008-06-10 10:13 51°19.243 2°52.071 -999 -999 -999 -999 -999
2008-06-10 10:14 51°19.226 2°52.046 -999 -999 -999 -999 -999
2008-06-10 10:15 51°19.206 2°52.022 -999 -999 -999 -999 -999
2008-06-10 10:16 51°19.187 2°51.999 -999 -999 -999 -999 -999
2008-06-10 10:17 51°19.169 2°51.977 -999 -999 -999 -999 -999
2008-06-10 10:18 51°19.151 2°51.956 -999 -999 -999 -999 -999
2008-06-10 10:19 51°19.134 2°51.933 -999 -999 -999 -999 -999
2008-06-10 10:20 51°19.117 2°51.909 -999 -999 -999 -999 -999
2008-06-10 10:21 51°19.1 2°51.884 -999 -999 -999 -999 -999
2008-06-10 10:22 51°19.034 2°51.847 -999 -999 -999 -999 -999
2008-06-10 10:23 51°19.021 2°51.939 -999 -999 -999 -999 -999
2008-06-10 10:24 51°19.125 2°52.044 -999 -999 -999 -999 -999
2008-06-10 10:25 51°19.219 2°52.139 -999 -999 -999 -999 -999
2008-06-10 10:26 51°19.266 2°52.161 -999 -999 -999 -999 -999
2008-06-10 10:27 51°19.284 2°52.129 -999 -999 -999 -999 -999
2008-06-10 10:28 51°19.272 2°52.097 -999 -999 -999 -999 -999
2008-06-10 10:29 51°19.257 2°52.066 -999 -999 -999 -999 -999
2008-06-10 10:30 51°19.24 2°52.035 -999 -999 -999 -999 -999
2008-06-10 10:31 51°19.221 2°52.003 -999 -999 -999 -999 -999
2008-06-10 10:32 51°19.203 2°51.97 -999 -999 -999 -999 -999
2008-06-10 10:33 51°19.184 2°51.937 -999 -999 -999 -999 -999
2008-06-10 10:34 51°19.166 2°51.903 -999 -999 -999 -999 -999
2008-06-10 10:35 51°19.148 2°51.868 -999 -999 -999 -999 -999
2008-06-10 10:36 51°19.13 2°51.833 -999 -999 -999 -999 -999
2008-06-10 10:37 51°19.113 2°51.8 -999 -999 -999 -999 -999
2008-06-10 10:38 51°19.095 2°51.766 -999 -999 -999 -999 -999
2008-06-10 10:39 51°19.077 2°51.732 -999 -999 -999 -999 -999
2008-06-10 10:40 51°19.059 2°51.699 -999 -999 -999 -999 -999
2008-06-10 10:41 51°19.04 2°51.667 -999 -999 -999 -999 -999
2008-06-10 10:42 51°19.021 2°51.636 -999 -999 -999 -999 -999
2008-06-10 10:43 51°18.997 2°51.593 -999 -999 -999 -999 -999
2008-06-10 10:44 51°18.946 2°51.53 -999 -999 -999 -999 -999
2008-06-10 10:45 51°18.889 2°51.536 -999 -999 -999 -999 -999
2008-06-10 10:46 51°18.869 2°51.589 -999 -999 -999 -999 -999
2008-06-10 10:47 51°18.853 2°51.671 -999 -999 -999 -999 -999
2008-06-10 10:48 51°18.818 2°51.772 -999 -999 -999 -999 -999
2008-06-10 10:49 51°18.78 2°51.879 -999 -999 -999 -999 -999
2008-06-10 10:50 51°18.747 2°51.985 -999 -999 -999 -999 -999
2008-06-10 10:51 51°18.771 2°52.044 -999 -999 -999 -999 -999
2008-06-10 10:52 51°18.805 2°52.11 -999 -999 -999 -999 -999
2008-06-10 10:53 51°18.833 2°52.176 -999 -999 -999 -999 -999
2008-06-10 10:54 51°18.866 2°52.227 -999 -999 -999 -999 -999
2008-06-10 10:55 51°18.902 2°52.272 -999 -999 -999 -999 -999
2008-06-10 10:56 51°18.928 2°52.333 -999 -999 -999 -999 -999
2008-06-10 10:57 51°18.95 2°52.398 -999 -999 -999 -999 -999
2008-06-10 10:58 51°18.983 2°52.452 -999 -999 -999 -999 -999
2008-06-10 10:59 51°19.013 2°52.519 -999 -999 -999 -999 -999
2008-06-10 11:00 51°19.034 2°52.59 -999 -999 -999 -999 -999
2008-06-10 11:01 51°19.059 2°52.652 -999 -999 -999 -999 -999
2008-06-10 11:02 51°19.087 2°52.712 -999 -999 -999 -999 -999
2008-06-10 11:03 51°19.108 2°52.78 -999 -999 -999 -999 -999
2008-06-10 11:04 51°19.13 2°52.846 -999 -999 -999 -999 -999
2008-06-10 11:05 51°19.155 2°52.907 -999 -999 -999 -999 -999
2008-06-10 11:06 51°19.177 2°52.973 -999 -999 -999 -999 -999
2008-06-10 11:07 51°19.191 2°53.046 -999 -999 -999 -999 -999
2008-06-10 11:08 51°19.206 2°53.115 -999 -999 -999 -999 -999
2008-06-10 11:09 51°19.232 2°53.18 -999 -999 -999 -999 -999
2008-06-10 11:10 51°19.254 2°53.255 -999 -999 -999 -999 -999
2008-06-10 11:11 51°19.273 2°53.334 -999 -999 -999 -999 -999
2008-06-10 11:12 51°19.297 2°53.405 -999 -999 -999 -999 -999
2008-06-10 11:13 51°19.324 2°53.475 -999 -999 -999 -999 -999
2008-06-10 11:14 51°19.35 2°53.545 -999 -999 -999 -999 -999
2008-06-10 11:15 51°19.374 2°53.615 -999 -999 -999 -999 -999
2008-06-10 11:16 51°19.388 2°53.691 -999 -999 -999 -999 -999
2008-06-10 11:17 51°19.369 2°53.772 -999 -999 -999 -999 -999
2008-06-10 11:18 51°19.337 2°53.817 -999 -999 -999 -999 -999
2008-06-10 11:19 51°19.303 2°53.851 -999 -999 -999 -999 -999
2008-06-10 11:20 51°19.26 2°53.916 -999 -999 -999 -999 -999
2008-06-10 11:21 51°19.225 2°53.955 -999 -999 -999 -999 -999
2008-06-10 11:22 51°19.2 2°53.972 -999 -999 -999 -999 -999
2008-06-10 11:23 51°19.18 2°53.975 -999 -999 -999 -999 -999
2008-06-10 11:24 51°19.16 2°53.967 -999 -999 -999 -999 -999
2008-06-10 11:25 51°19.148 2°53.974 -999 -999 -999 -999 -999
2008-06-10 11:26 51°19.176 2°53.994 -999 -999 -999 -999 -999
2008-06-10 11:27 51°19.232 2°54.035 -999 -999 -999 -999 -999
2008-06-10 11:28 51°19.274 2°54.088 -999 -999 -999 -999 -999
2008-06-10 11:29 51°19.306 2°54.147 -999 -999 -999 -999 -999
2008-06-10 11:30 51°19.342 2°54.206 -999 -999 -999 -999 -999
2008-06-10 11:31 51°19.384 2°54.256 -999 -999 -999 -999 -999
2008-06-10 11:32 51°19.425 2°54.308 -999 -999 -999 -999 -999
2008-06-10 11:33 51°19.455 2°54.377 -999 -999 -999 -999 -999
2008-06-10 11:34 51°19.485 2°54.442 -999 -999 -999 -999 -999
2008-06-10 11:35 51°19.524 2°54.49 -999 -999 -999 -999 -999
2008-06-10 11:36 51°19.56 2°54.545 -999 -999 -999 -999 -999
2008-06-10 11:37 51°19.593 2°54.608 -999 -999 -999 -999 -999
2008-06-10 11:38 51°19.623 2°54.672 -999 -999 -999 -999 -999
2008-06-10 11:39 51°19.651 2°54.738 -999 -999 -999 -999 -999
2008-06-10 11:40 51°19.678 2°54.806 -999 -999 -999 -999 -999
2008-06-10 11:41 51°19.702 2°54.878 -999 -999 -999 -999 -999
2008-06-10 11:42 51°19.728 2°54.945 -999 -999 -999 -999 -999
2008-06-10 11:43 51°19.757 2°55.007 -999 -999 -999 -999 -999
2008-06-10 11:44 51°19.786 2°55.071 -999 -999 -999 -999 -999
2008-06-10 11:45 51°19.809 2°55.141 -999 -999 -999 -999 -999
2008-06-10 11:46 51°19.832 2°55.212 -999 -999 -999 -999 -999
2008-06-10 11:47 51°19.855 2°55.278 -999 -999 -999 -999 -999
2008-06-10 11:48 51°19.883 2°55.341 -999 -999 -999 -999 -999
2008-06-10 11:49 51°19.912 2°55.4 -999 -999 -999 -999 -999
2008-06-10 11:50 51°19.944 2°55.458 -999 -999 -999 -999 -999
2008-06-10 11:51 51°19.976 2°55.513 -999 -999 -999 -999 -999
2008-06-10 11:52 51°20.007 2°55.566 -999 -999 -999 -999 -999
2008-06-10 11:53 51°20.034 2°55.619 -999 -999 -999 -999 -999
2008-06-10 11:54 51°20.031 2°55.691 -999 -999 -999 -999 -999
2008-06-10 11:55 51°20.006 2°55.762 -999 -999 -999 -999 -999
2008-06-10 11:56 51°19.95 2°55.831 -999 -999 -999 -999 -999
2008-06-10 11:57 51°19.873 2°55.869 -999 -999 -999 -999 -999
2008-06-10 11:58 51°19.779 2°55.85 -999 -999 -999 -999 -999
2008-06-10 11:59 51°19.704 2°55.787 -999 -999 -999 -999 -999
2008-06-10 12:00 51°19.658 2°55.721 -999 -999 -999 -999 -999
2008-06-10 12:01 51°19.626 2°55.665 -999 -999 -999 -999 -999
2008-06-10 12:02 51°19.6 2°55.618 -999 -999 -999 -999 -999
2008-06-10 12:03 51°19.575 2°55.576 -999 -999 -999 -999 -999
2008-06-10 12:04 51°19.552 2°55.536 -999 -999 -999 -999 -999
2008-06-10 12:05 51°19.53 2°55.493 -999 -999 -999 -999 -999
2008-06-10 12:06 51°19.499 2°55.42 -999 -999 -999 -999 -999
2008-06-10 12:07 51°19.431 2°55.297 -999 -999 -999 -999 -999
2008-06-10 12:08 51°19.352 2°55.148 -999 -999 -999 -999 -999
2008-06-10 12:09 51°19.253 2°54.958 -999 -999 -999 -999 -999
2008-06-10 12:10 51°19.141 2°54.747 -999 -999 -999 -999 -999
2008-06-10 12:11 51°19.016 2°54.504 -999 -999 -999 -999 -999
2008-06-10 12:12 51°18.901 2°54.291 -999 -999 -999 -999 -999
2008-06-10 12:13 51°18.825 2°54.21 -999 -999 -999 -999 -999
2008-06-10 12:14 51°18.762 2°54.165 -999 -999 -999 -999 -999
2008-06-10 12:15 51°18.709 2°54.132 -999 -999 -999 -999 -999
2008-06-10 12:16 51°18.66 2°54.104 -999 -999 -999 -999 -999
2008-06-10 12:17 51°18.616 2°54.083 -999 -999 -999 -999 -999
2008-06-10 12:18 51°18.574 2°54.064 -999 -999 -999 -999 -999
2008-06-10 12:19 51°18.537 2°54.046 -999 -999 -999 -999 -999
2008-06-10 12:20 51°18.501 2°54.029 -999 -999 -999 -999 -999
2008-06-10 12:21 51°18.446 2°54.015 -999 -999 -999 -999 -999
2008-06-10 12:22 51°18.391 2°53.924 -999 -999 -999 -999 -999
2008-06-10 12:23 51°18.36 2°53.741 -999 -999 -999 -999 -999
2008-06-10 12:24 51°18.412 2°53.467 -999 -999 -999 -999 -999
2008-06-10 12:25 51°18.538 2°53.221 -999 -999 -999 -999 -999
2008-06-10 12:26 51°18.665 2°52.973 -999 -999 -999 -999 -999
2008-06-10 12:27 51°18.75 2°52.782 -999 -999 -999 -999 -999
2008-06-10 12:28 51°18.733 2°52.701 -999 -999 -999 -999 -999
2008-06-10 12:29 51°18.724 2°52.692 -999 -999 -999 -999 -999
2008-06-10 12:30 51°18.696 2°52.669 -999 -999 -999 -999 -999
2008-06-10 12:31 51°18.644 2°52.692 -999 -999 -999 -999 -999
2008-06-10 12:32 51°18.63 2°52.702 -999 -999 -999 -999 -999
2008-06-10 12:33 51°18.631 2°52.732 -999 -999 -999 -999 -999
2008-06-10 12:34 51°18.639 2°52.765 -999 -999 -999 -999 -999
2008-06-10 12:35 51°18.646 2°52.778 -999 -999 -999 -999 -999
2008-06-10 12:36 51°18.648 2°52.769 -999 -999 -999 -999 -999
2008-06-10 12:37 51°18.646 2°52.759 -999 -999 -999 -999 -999
2008-06-10 12:38 51°18.637 2°52.758 -999 -999 -999 -999 -999
2008-06-10 12:39 51°18.629 2°52.76 -999 -999 -999 -999 -999
2008-06-10 12:40 51°18.631 2°52.766 -999 -999 -999 -999 -999
2008-06-10 12:41 51°18.634 2°52.761 -999 -999 -999 -999 -999
2008-06-10 12:42 51°18.638 2°52.756 -999 -999 -999 -999 -999
2008-06-10 12:43 51°18.643 2°52.754 -999 -999 -999 -999 -999
2008-06-10 12:44 51°18.635 2°52.777 -999 -999 -999 -999 -999
2008-06-10 12:45 51°18.543 2°52.823 -999 -999 -999 -999 -999
2008-06-10 12:46 51°18.37 2°52.747 -999 -999 -999 -999 -999
2008-06-10 12:47 51°18.163 2°52.655 -999 -999 -999 -999 -999
2008-06-10 12:48 51°17.939 2°52.6 -999 -999 -999 -999 -999
2008-06-10 12:49 51°17.722 2°52.593 -999 -999 -999 -999 -999
2008-06-10 12:50 51°17.502 2°52.591 -999 -999 -999 -999 -999
2008-06-10 12:51 51°17.283 2°52.568 -999 -999 -999 -999 -999
2008-06-10 12:52 51°17.073 2°52.625 -999 -999 -999 -999 -999
2008-06-10 12:53 51°16.869 2°52.721 -999 -999 -999 -999 -999
2008-06-10 12:54 51°16.671 2°52.833 -999 -999 -999 -999 -999
2008-06-10 12:55 51°16.469 2°52.939 -999 -999 -999 -999 -999
2008-06-10 12:56 51°16.272 2°53.035 -999 -999 -999 -999 -999
2008-06-10 12:57 51°16.067 2°53.129 -999 -999 -999 -999 -999
2008-06-10 12:58 51°15.868 2°53.215 -999 -999 -999 -999 -999
2008-06-10 12:59 51°15.666 2°53.317 -999 -999 -999 -999 -999
2008-06-10 13:00 51°15.48 2°53.438 -999 -999 -999 -999 -999
2008-06-10 13:01 51°15.297 2°53.592 -999 -999 -999 -999 -999
2008-06-10 13:02 51°15.121 2°53.747 -999 -999 -999 -999 -999
2008-06-10 13:03 51°14.948 2°53.914 -999 -999 -999 -999 -999
2008-06-10 13:04 51°14.806 2°54.132 -999 -999 -999 -999 -999
2008-06-10 13:05 51°14.677 2°54.361 -999 -999 -999 -999 -999
2008-06-10 13:06 51°14.543 2°54.594 -999 -999 -999 -999 -999
2008-06-10 13:07 51°14.43 2°54.834 -999 -999 -999 -999 -999
2008-06-10 13:08 51°14.327 2°55.099 -999 -999 -999 -999 -999
2008-06-10 13:09 51°14.204 2°55.337 -999 -999 -999 -999 -999
2008-06-10 13:10 51°14.072 2°55.452 -999 -999 -999 -999 -999